Time,TemperatureF,DewpointF,PressureIn,WindDirection,WindDirectionDegrees,WindSpeedMPH,WindSpeedGustMPH,Humidity,HourlyPrecipIn,Conditions,Clouds,dailyrainin,SoftwareType,DateUTC
2013-05-18 00:00:00,66.8,60.8,29.99,East,92,0.0,0.0,81,0.00,,FEW050,0.00,VWS V14.00,2013-05-18 04:00:00,
2013-05-18 00:15:00,66.3,60.7,29.99,East,92,0.0,0.0,82,0.00,,FEW050,0.00,VWS V14.00,2013-05-18 04:15:00,
2013-05-18 00:30:00,66.3,61.0,29.99,East,92,0.0,0.0,83,0.00,,FEW050,0.00,VWS V14.00,2013-05-18 04:30:00,
2013-05-18 00:45:00,66.1,60.8,29.99,East,92,0.0,0.0,83,0.00,,FEW050,0.00,VWS V14.00,2013-05-18 04:45:00,
2013-05-18 01:00:00,66.0,60.7,29.99,East,93,0.0,1.0,83,0.00,,CLR,0.00,VWS V14.00,2013-05-18 05:00:00,
2013-05-18 01:15:00,66.0,61.0,29.99,East,92,0.0,0.0,84,0.00,,CLR,0.00,VWS V14.00,2013-05-18 05:15:00,
2013-05-18 01:30:00,65.8,60.8,29.99,East,93,0.0,0.0,84,0.00,,CLR,0.00,VWS V14.00,2013-05-18 05:30:00,
2013-05-18 01:45:00,65.6,60.6,29.99,East,92,0.0,2.0,84,0.00,,CLR,0.00,VWS V14.00,2013-05-18 05:45:00,
2013-05-18 02:00:00,65.5,60.9,29.98,East,92,0.0,0.0,85,0.00,,CLR,0.00,VWS V14.00,2013-05-18 06:00:00,
2013-05-18 02:15:00,65.0,60.4,29.99,East,92,0.0,0.0,85,0.00,,CLR,0.00,VWS V14.00,2013-05-18 06:15:00,
2013-05-18 02:30:00,64.7,60.1,29.99,East,92,0.0,0.0,85,0.00,,CLR,0.00,VWS V14.00,2013-05-18 06:30:00,
2013-05-18 02:45:00,64.2,59.9,29.99,East,92,0.0,0.0,86,0.00,,CLR,0.00,VWS V14.00,2013-05-18 06:45:00,
2013-05-18 03:00:00,63.9,60.0,29.99,East,92,0.0,0.0,87,0.00,,FEW075,0.00,VWS V14.00,2013-05-18 07:00:00,
2013-05-18 03:15:00,63.9,60.3,29.99,East,92,0.0,0.0,88,0.00,,FEW075,0.00,VWS V14.00,2013-05-18 07:15:00,
2013-05-18 03:30:00,63.7,60.1,29.99,East,92,0.0,0.0,88,0.00,,FEW075,0.00,VWS V14.00,2013-05-18 07:30:00,
2013-05-18 03:45:00,63.5,60.2,29.99,East,92,0.0,0.0,89,0.00,,FEW075,0.00,VWS V14.00,2013-05-18 07:45:00,
2013-05-18 04:00:00,63.7,60.4,29.99,East,92,0.0,0.0,89,0.00,,CLR,0.00,VWS V14.00,2013-05-18 08:00:00,
2013-05-18 04:15:00,63.9,60.9,29.99,East,92,0.0,0.0,90,0.00,,CLR,0.00,VWS V14.00,2013-05-18 08:15:00,
2013-05-18 04:30:00,63.7,60.7,29.99,East,92,0.0,1.0,90,0.00,,CLR,0.00,VWS V14.00,2013-05-18 08:30:00,
2013-05-18 04:45:00,63.9,60.9,30.00,East,92,0.0,0.0,90,0.00,,CLR,0.00,VWS V14.00,2013-05-18 08:45:00,
2013-05-18 05:00:00,64.0,61.0,30.00,East,92,0.0,0.0,90,0.00,,OVC120,0.00,VWS V14.00,2013-05-18 09:00:00,
2013-05-18 05:15:00,64.2,61.2,30.01,East,90,0.0,0.0,90,0.00,,OVC120,0.00,VWS V14.00,2013-05-18 09:15:00,
2013-05-18 05:30:00,64.3,61.3,30.02,East,90,0.0,0.0,90,0.00,,OVC120,0.00,VWS V14.00,2013-05-18 09:30:00,
2013-05-18 05:45:00,64.5,61.5,30.02,East,90,0.0,1.0,90,0.00,,OVC120,0.00,VWS V14.00,2013-05-18 09:45:00,
2013-05-18 06:00:00,64.7,61.4,30.02,East,90,0.0,1.0,89,0.00,,BKN090,0.00,VWS V14.00,2013-05-18 10:00:00,
2013-05-18 06:15:00,65.0,61.4,30.03,East,90,0.0,2.0,88,0.00,,BKN090,0.00,VWS V14.00,2013-05-18 10:15:00,
2013-05-18 06:30:00,65.3,61.3,30.04,East,88,0.0,3.0,87,0.00,,BKN090,0.00,VWS V14.00,2013-05-18 10:30:00,
2013-05-18 06:45:00,65.3,60.7,30.04,East,89,0.0,3.0,85,0.00,,BKN090,0.00,VWS V14.00,2013-05-18 10:45:00,
2013-05-18 07:00:00,65.6,60.6,30.04,East,89,1.0,3.0,84,0.00,,BKN120,0.00,VWS V14.00,2013-05-18 11:00:00,
2013-05-18 07:15:00,65.8,60.5,30.05,East,88,1.0,5.0,83,0.00,,BKN120,0.00,VWS V14.00,2013-05-18 11:15:00,
2013-05-18 07:30:00,66.1,60.8,30.05,East,88,0.0,2.0,83,0.00,,BKN120,0.00,VWS V14.00,2013-05-18 11:30:00,
2013-05-18 07:45:00,66.4,60.7,30.06,East,89,0.0,1.0,82,0.00,,BKN120,0.00,VWS V14.00,2013-05-18 11:45:00,
2013-05-18 08:00:00,66.6,60.9,30.06,East,89,0.0,1.0,82,0.00,,BKN120,0.00,VWS V14.00,2013-05-18 12:00:00,
2013-05-18 08:15:00,66.9,60.9,30.06,East,85,0.0,2.0,81,0.00,,BKN120,0.00,VWS V14.00,2013-05-18 12:15:00,
2013-05-18 08:30:00,67.3,61.3,30.06,East,86,1.0,5.0,81,0.00,,BKN120,0.00,VWS V14.00,2013-05-18 12:30:00,
2013-05-18 08:45:00,67.8,61.1,30.06,East,86,0.0,5.0,79,0.00,,BKN120,0.00,VWS V14.00,2013-05-18 12:45:00,
2013-05-18 09:00:00,68.4,61.3,30.06,East,85,0.0,3.0,78,0.00,,CLR,0.00,VWS V14.00,2013-05-18 13:00:00,
2013-05-18 09:15:00,69.3,62.5,30.06,East,88,0.0,3.0,79,0.00,,CLR,0.00,VWS V14.00,2013-05-18 13:15:00,
2013-05-18 09:30:00,70.8,62.1,30.06,East,93,1.0,2.0,74,0.00,,CLR,0.00,VWS V14.00,2013-05-18 13:30:00,
2013-05-18 09:45:00,72.1,63.0,30.05,East,88,1.0,3.0,73,0.00,,CLR,0.00,VWS V14.00,2013-05-18 13:45:00,
2013-05-18 10:00:00,73.3,63.3,30.05,East,90,0.0,1.0,71,0.00,,SCT070,0.00,VWS V14.00,2013-05-18 14:00:00,
2013-05-18 10:15:00,74.6,64.2,30.06,East,90,0.0,5.0,70,0.00,,SCT070,0.00,VWS V14.00,2013-05-18 14:15:00,
2013-05-18 10:30:00,74.0,64.0,30.07,East,88,0.0,3.0,71,0.00,,SCT070,0.00,VWS V14.00,2013-05-18 14:30:00,
2013-05-18 10:45:00,73.9,64.7,30.07,East,92,0.0,3.0,73,0.00,,SCT070,0.00,VWS V14.00,2013-05-18 14:45:00,
2013-05-18 11:00:00,73.3,64.1,30.08,East,96,0.0,3.0,73,0.00,,SCT090,0.00,VWS V14.00,2013-05-18 15:00:00,
2013-05-18 11:15:00,73.0,63.5,30.07,East,100,0.0,3.0,72,0.00,,SCT090,0.00,VWS V14.00,2013-05-18 15:15:00,
2013-05-18 11:30:00,72.8,63.7,30.07,East,97,0.0,2.0,73,0.00,,SCT090,0.00,VWS V14.00,2013-05-18 15:30:00,
2013-05-18 11:45:00,73.2,63.2,30.06,East,96,0.0,1.0,71,0.00,,SCT090,0.00,VWS V14.00,2013-05-18 15:45:00,
2013-05-18 12:00:00,73.7,62.5,30.05,East,96,0.0,1.0,68,0.00,,BKN038,0.00,VWS V14.00,2013-05-18 16:00:00,
2013-05-18 12:15:00,74.7,63.9,30.05,ESE,104,0.0,1.0,69,0.00,,BKN038,0.00,VWS V14.00,2013-05-18 16:15:00,
2013-05-18 12:30:00,75.1,64.2,30.04,East,96,0.0,2.0,69,0.00,,BKN038,0.00,VWS V14.00,2013-05-18 16:30:00,
2013-05-18 12:45:00,75.4,64.1,30.03,East,97,0.0,2.0,68,0.00,,BKN038,0.00,VWS V14.00,2013-05-18 16:45:00,
2013-05-18 13:00:00,76.1,63.9,30.04,East,100,1.0,1.0,66,0.00,,-RA,0.00,VWS V14.00,2013-05-18 17:00:00,
2013-05-18 13:15:00,75.3,64.0,30.04,ESE,103,0.0,3.0,68,0.00,,-RA,0.00,VWS V14.00,2013-05-18 17:15:00,
2013-05-18 13:30:00,73.7,62.9,30.04,ESE,103,0.0,5.0,69,0.00,,-RA,0.00,VWS V14.00,2013-05-18 17:30:00,
2013-05-18 13:45:00,73.0,62.7,30.03,ESE,123,0.0,6.0,70,0.00,,-RA,0.00,VWS V14.00,2013-05-18 17:45:00,
2013-05-18 14:00:00,74.4,63.6,30.03,ESE,120,2.0,4.0,69,0.00,,SCT034,0.00,VWS V14.00,2013-05-18 18:00:00,
2013-05-18 14:15:00,74.0,65.2,30.03,SE,130,0.0,4.0,74,0.00,,SCT034,0.00,VWS V14.00,2013-05-18 18:15:00,
2013-05-18 14:30:00,72.8,64.4,30.03,ESE,119,0.0,5.0,75,0.00,,SCT034,0.00,VWS V14.00,2013-05-18 18:30:00,
2013-05-18 14:45:00,72.1,64.1,30.03,ESE,116,0.0,2.0,76,0.00,,SCT034,0.00,VWS V14.00,2013-05-18 18:45:00,
2013-05-18 15:00:00,72.0,64.0,30.03,ESE,114,0.0,2.0,76,0.00,,BKN065,0.00,VWS V14.00,2013-05-18 19:00:00,
2013-05-18 15:15:00,72.5,64.5,30.03,ESE,113,0.0,2.0,76,0.00,,BKN065,0.00,VWS V14.00,2013-05-18 19:15:00,
2013-05-18 15:30:00,72.7,64.7,30.03,ESE,113,0.0,2.0,76,0.00,,BKN065,0.00,VWS V14.00,2013-05-18 19:30:00,
2013-05-18 15:45:00,72.7,65.4,30.03,ESE,113,0.0,1.0,78,0.00,,BKN065,0.00,VWS V14.00,2013-05-18 19:45:00,
2013-05-18 16:00:00,72.3,64.7,30.03,ESE,113,0.0,2.0,77,0.00,,BKN065,0.00,VWS V14.00,2013-05-18 20:00:00,
2013-05-18 16:15:00,72.5,65.6,30.02,ESE,113,0.0,1.0,79,0.00,,BKN065,0.00,VWS V14.00,2013-05-18 20:15:00,
2013-05-18 16:30:00,72.3,64.3,30.02,ESE,113,0.0,1.0,76,0.00,,BKN043,0.00,VWS V14.00,2013-05-18 20:30:00,
2013-05-18 16:45:00,72.5,65.3,30.02,ESE,113,0.0,1.0,78,0.00,,BKN043,0.00,VWS V14.00,2013-05-18 20:45:00,
2013-05-18 17:00:00,72.5,64.9,30.01,ESE,113,0.0,1.0,77,0.00,,-RA,0.00,VWS V14.00,2013-05-18 21:00:00,
2013-05-18 17:15:00,72.7,65.1,30.01,ESE,113,0.0,0.0,77,0.00,,-RA,0.00,VWS V14.00,2013-05-18 21:15:00,
2013-05-18 17:30:00,72.8,64.8,30.01,ESE,113,0.0,3.0,76,0.00,,-RA,0.00,VWS V14.00,2013-05-18 21:30:00,
2013-05-18 17:45:00,72.7,65.1,30.01,ESE,113,0.0,1.0,77,0.00,,-RA,0.00,VWS V14.00,2013-05-18 21:45:00,
2013-05-18 18:00:00,72.3,65.1,30.01,ESE,113,0.0,0.0,78,0.00,,OVC070,0.00,VWS V14.00,2013-05-18 22:00:00,
2013-05-18 18:15:00,71.6,64.4,30.02,ESE,112,0.0,1.0,78,0.00,,OVC070,0.00,VWS V14.00,2013-05-18 22:15:00,
2013-05-18 18:30:00,71.5,65.0,30.02,ESE,112,0.0,2.0,80,0.00,,OVC070,0.00,VWS V14.00,2013-05-18 22:30:00,
2013-05-18 18:45:00,70.9,64.1,30.03,ESE,112,0.0,1.0,79,0.00,,OVC070,0.00,VWS V14.00,2013-05-18 22:45:00,
2013-05-18 19:00:00,70.8,64.3,30.03,ESE,112,0.0,2.0,80,0.00,,OVC100,0.00,VWS V14.00,2013-05-18 23:00:00,
2013-05-18 19:15:00,70.1,65.1,30.04,ESE,114,0.0,4.0,84,0.00,,OVC100,0.00,VWS V14.00,2013-05-18 23:15:00,
2013-05-18 19:30:00,68.6,63.9,30.03,ESE,112,0.0,3.0,85,0.01,,OVC100,0.01,VWS V14.00,2013-05-18 23:30:00,
2013-05-18 19:45:00,67.6,63.3,30.05,ESE,112,0.0,3.0,86,0.01,,OVC100,0.01,VWS V14.00,2013-05-18 23:45:00,
2013-05-18 20:00:00,66.8,62.8,30.04,ESE,112,0.0,1.0,87,0.01,,OVC100,0.01,VWS V14.00,2013-05-19 00:00:00,
2013-05-18 20:15:00,66.3,62.6,30.04,ESE,112,0.0,1.0,88,0.01,,OVC100,0.01,VWS V14.00,2013-05-19 00:15:00,
2013-05-18 20:30:00,66.0,62.7,30.03,ESE,112,1.0,2.0,89,0.01,,OVC100,0.01,VWS V14.00,2013-05-19 00:30:00,
2013-05-18 21:15:00,66.1,63.1,30.05,ESE,112,0.0,0.0,90,0.01,,OVC035,0.02,VWS V14.00,2013-05-19 01:15:00,
2013-05-18 21:30:00,66.1,63.1,30.05,ESE,112,0.0,0.0,90,0.03,,OVC035,0.04,VWS V14.00,2013-05-19 01:30:00,
2013-05-18 21:45:00,65.6,62.6,30.04,ESE,112,0.0,0.0,90,0.04,,OVC035,0.05,VWS V14.00,2013-05-19 01:45:00,
2013-05-18 21:47:00,66.0,63.0,30.04,ESE,112,0.0,1.0,90,0.00,,OVC100,0.01,VWS V14.00,2013-05-19 01:47:00,
2013-05-18 22:00:00,65.5,62.5,30.04,ESE,112,0.0,0.0,90,0.04,,-RA,0.05,VWS V14.00,2013-05-19 02:00:00,
2013-05-18 22:02:00,66.0,63.0,30.05,ESE,112,0.0,0.0,90,0.00,,OVC035,0.01,VWS V14.00,2013-05-19 02:02:00,
2013-05-18 22:30:00,65.2,62.5,30.04,ESE,112,0.0,3.0,91,0.03,,-RA,0.05,VWS V14.00,2013-05-19 02:30:00,
2013-05-18 22:45:00,65.2,62.5,30.04,ESE,110,0.0,2.0,91,0.01,,-RA,0.05,VWS V14.00,2013-05-19 02:45:00,
2013-05-18 23:00:00,65.2,62.8,30.04,ESE,112,0.0,1.0,92,0.00,,-RA,0.05,VWS V14.00,2013-05-19 03:00:00,
2013-05-18 23:15:00,65.0,62.6,30.04,ESE,112,0.0,1.0,92,0.03,,-RA,0.08,VWS V14.00,2013-05-19 03:15:00,
2013-05-18 23:17:00,65.3,62.6,30.04,ESE,112,0.0,2.0,91,0.04,,-RA,0.05,VWS V14.00,2013-05-19 03:17:00,
2013-05-18 23:30:00,64.8,62.4,30.03,ESE,110,0.0,2.0,92,0.03,,-RA,0.08,VWS V14.00,2013-05-19 03:30:00,
2013-05-18 23:45:00,64.7,62.3,30.04,ESE,119,0.0,2.0,92,0.03,,-RA,0.08,VWS V14.00,2013-05-19 03:45:00,